Tracking 25656 objects as of 22-May-2022
HD Live streaming from Space Station
objects crossing your sky now

EXOCUBE

Track EXOCUBE now!
10-day predictions
EXOCUBE is classified as:


NORAD ID: 40380
Int'l Code: 2015-003E
Perigee: 428.9 km
Apogee: 601.1 km
Inclination: 99.1 °
Period: 94.8 minutes
Semi major axis: 6885 km
RCS: Unknown
Launch date: January 31, 2015
Source: United States (US)
Launch site: AIR FORCE WESTERN TEST RANGE (AFWTR)

Uplink (MHz):
Downlink (MHz): 437.270
Beacon (MHz): 437.270
Mode: 9600bps FSK CW
Call sign: KK6HGC XO3
Status: Inactive

aabbcc
Your satellite tracking list
Your tracking list is empty




NASA's NSSDC Master Catalog

Two Line Element Set (TLE):
1 40380U 15003E   22141.49080384  .00015738  00000-0  60772-3 0  9999
2 40380  99.1235 339.7889 0124993 180.6524 179.4562 15.19337305403061
Source of the keplerian elements: Caltech